Orbital Elements at Epoch 2459000.5 (2020-May-31.0) TDB
Reference: JPL 17 (heliocentric ecliptic J2000)
Element | Value | Uncertainty (1-sigma) | Units |
e | .002315231487934384 | 6.5196e-08 | |
a | 2.743449367695403 | 2.2794e-08 | au |
q | 2.737097647333762 | 1.7996e-07 | au |
i | 7.136273142852694 | 6.8497e-06 | deg |
node | 133.1376955336538 | 5.6023e-05 | deg |
peri | 191.7149850997194 | 0.0014858 | deg |
M | 13.44250514067429 | 0.0014827 | deg |
tp | 2458938.524282774242 (2020-Mar-30.02428277) | 0.0068362 | TDB |
period | 1659.754485327545 4.54 | 2.0685e-05 5.663e-08 | d yr |
n | .2168995494107405 | 2.7032e-09 | deg/d |
Q | 2.749801088057046 | 2.2847e-08 | au |
|
| | Orbit Determination Parameters
Additional Information
|